Location: Linton
(52.0943°N, 0.2848°E)
Time: 15:38:20
(UTC+00:00)

ISS - Visible Passes

Search period start: 21 November 2017 00:00
Search period end: 01 December 2017 00:00
Orbit: 402 x 407 km, 51.6° (Epoch: 22 November)

Date Brightness Start Highest point End Pass type
(mag) Time Alt. Az. Time Alt. Az. Time Alt. Az.
28 Nov -0.8 18:50:18 10° SSW 18:50:32 11° SSW 18:50:32 11° SSW visible
29 Nov -1.9 17:58:31 10° SSW 18:00:26 19° SSE 18:00:26 19° SSE visible
30 Nov -1.5 17:07:12 10° S 17:08:52 13° SE 17:10:16 11° ESE visible
30 Nov -1.5 18:41:35 10° SW 18:42:55 21° SW 18:42:55 21° SW visible
